{"data":{"norad_id":63180,"epoch":"2026-05-25T01:42:07.231392Z","epoch_age_seconds":72843,"freshness":"FRESH","line1":"1 63180U 25047C   26145.07091703  .00000417  00000+0  70469-4 0  9992","line2":"2 63180  97.9546 330.5388 0008813 238.8553 121.1791 14.74320235 64658","mean_motion":14.74320235,"eccentricity":0.0008813,"inclination_deg":97.9546,"raan_deg":330.5388,"arg_perigee_deg":238.8553,"mean_anomaly_deg":121.1791,"bstar":7.0469e-5,"rev_number":6465,"period_min":97.672131590868,"perigee_km":641.11839828929,"apogee_km":653.5014510387,"semimajor_km":7025.446924664,"source":"CELESTRAK","updated_at":"2026-05-25T13:38:03.543804Z"}}